Flag Weather past 2 weeks in Seattle, Washington, U.S.A.

Now
41 °F

Mostly cloudy.


Feels Like: 37 °F
Forecast: 44 / 50 °F
Wind: 6 mph from Southeast

Location: Seattle Boeing Field

Current Time: Nov 24, 2014 at 7:40:52 AM

Latest Report: Nov 24, 2014 at 6:53 AM


Visibility: 10 mi

Pressure: 30.35 "Hg

Humidity: 82%

Dew point: 36 °F

Location of SeattleLocation

Historic Weather in Seattle — Graph

°F

Seattle temperature yesterday

Maximum temperature yesterday: 57 °F (at 12:53 PM)
Minimum temperature yesterday: 44 °F (at 8:53 PM)
Average temperature yesterday: 51 °F

Past Weeks' High & Low Weather Summary

 TemperatureHumidityPressure
High57 °F (Nov 9, 12:53 PM)89% (Nov 24, 2:53 AM)30.54 "Hg (Nov 24, 2:53 AM)
Low27 °F (Nov 15, 6:53 AM)16% (Nov 12, 1:53 PM)29.31 "Hg (Nov 21, 5:53 PM)
Average44 °F61%30.11 "Hg
* Reported Nov 9 6:53 AM — Nov 24 6:53 AM, Seattle, Weather by CustomWeather, © 2014

Note: Actual official high and low records may vary slightly from our data, if they occured in-between our weather recording intervals... More about our weather records

Advertising

Seattle weather history for previous 24 hours

 ConditionsComfort  
Time TempWeatherWind HumidityBarometerVisibility
6:53 AM
Nov 24
41 °FMostly cloudy.6 mph82%30.35 "Hg10 mi
5:53 AM41 °FClear.3 mph82%30.34 "Hg10 mi
4:53 AM40 °FClear.3 mph86%30.35 "Hg10 mi
3:53 AM40 °FClear.No wind86%30.36 "Hg10 mi
2:53 AM39 °FClear.3 mph89%30.37 "Hg10 mi
1:53 AM44 °FClear.3 mph82%30.37 "Hg10 mi
12:53 AM44 °FPassing clouds.3 mph82%30.37 "Hg10 mi
11:53 PM
Nov 23
45 °FClear.3 mph82%30.36 "Hg10 mi
10:53 PM46 °FPassing clouds.5 mph79%30.34 "Hg10 mi
9:53 PM47 °FClear.7 mph80%30.31 "Hg10 mi
8:53 PM44 °FClear.8 mph82%30.30 "Hg10 mi
7:53 PM45 °FPassing clouds.6 mph80%30.28 "Hg10 mi
6:53 PM48 °FPassing clouds.3 mph71%30.26 "Hg10 mi
5:53 PM48 °FPassing clouds.No wind71%30.23 "Hg10 mi
4:53 PM52 °FPassing clouds.No wind61%30.20 "Hg10 mi
3:53 PM54 °FScattered clouds.3 mph67%30.18 "Hg10 mi
2:53 PM57 °FPartly sunny.No wind58%30.16 "Hg10 mi
1:53 PM57 °FScattered clouds.7 mph62%30.15 "Hg10 mi
12:53 PM57 °FScattered clouds.5 mph62%30.12 "Hg10 mi
11:53 AM54 °FMore clouds than sun.7 mph77%30.11 "Hg10 mi
10:53 AM53 °FMore clouds than sun.12 mph74%30.11 "Hg10 mi
9:53 AM52 °FLight rain. Mostly cloudy.6 mph77%30.09 "Hg10 mi
8:53 AM51 °FPartly sunny.13 mph77%30.08 "Hg10 mi
7:53 AM51 °FLight rain. Mostly cloudy.17 mph80%30.08 "Hg6 mi
Weather by CustomWeather, © 2014

See weather overviewHow to use our weather pages